Flag for U.S.A. Weather past 2 weeks in Austin, Texas, U.S.A.

Now
72 °F

Clear.


Feels Like: 74 °F
Forecast: 66 / 76 °F
Wind: No wind

Location: Camp Mabry / Austin City

Current Time: Mar 31, 2015 at 10:05:50 PM

Latest Report: Mar 31, 2015 at 8:51 PM


Visibility: 10 mi

Pressure: 29.92 "Hg

Humidity: 73%

Dew point: 63 °F

Location of AustinLocation

Historic Weather in Austin — Graph

°F

Austin temperature yesterday

Maximum temperature yesterday: 79 °F (at 5:51 PM)
Minimum temperature yesterday: 65 °F (at 12:51 AM)
Average temperature yesterday: 71 °F

Past Weeks' High & Low Weather Summary

 TemperatureHumidityPressure
High84 °F (Mar 28, 2:51 PM)100% (Mar 23, 7:51 AM)30.20 "Hg (Mar 23, 7:51 AM)
Low47 °F (Mar 27, 4:51 AM)16% (Mar 27, 1:51 PM)29.84 "Hg (Mar 25, 6:51 PM)
Average67 °F72%30.04 "Hg
* Reported Mar 16 8:51 PM — Mar 31 8:51 PM, Austin, Weather by CustomWeather, © 2015

Note: Actual official high and low records may vary slightly from our data, if they occured in-between our weather recording intervals... More about our weather records

Advertising

Austin weather history for previous 24 hours

 ConditionsComfort  
Time TempWeatherWind HumidityBarometerVisibility
8:51 PM
Tue, Mar 31
72 °FClear.No wind73%29.92 "Hg10 mi
7:51 PM74 °FPassing clouds.7 mph69%29.92 "Hg10 mi
6:51 PM76 °FScattered clouds.8 mph60%29.91 "Hg10 mi
5:51 PM77 °FScattered clouds.9 mph60%29.92 "Hg10 mi
4:51 PM80 °FPassing clouds.10 mph56%29.93 "Hg10 mi
3:51 PM81 °FPassing clouds.8 mph53%29.94 "Hg10 mi
2:51 PM79 °FPassing clouds.7 mph56%29.98 "Hg10 mi
1:51 PM79 °FPartly sunny.6 mph58%30.00 "Hg10 mi
12:51 PM79 °FPartly sunny.6 mph56%30.03 "Hg10 mi
11:51 AM73 °FOvercast.8 mph64%30.06 "Hg10 mi
10:51 AM71 °FOvercast.8 mph66%30.06 "Hg10 mi
9:51 AM69 °FOvercast.9 mph73%30.05 "Hg8 mi
8:51 AM67 °FOvercast.6 mph79%30.05 "Hg10 mi
7:51 AM66 °FOvercast.7 mph87%30.04 "Hg10 mi
6:51 AM67 °FOvercast.8 mph85%30.01 "Hg10 mi
5:51 AM67 °FOvercast.6 mph87%30.00 "Hg10 mi
4:51 AM67 °FOvercast.8 mph87%30.00 "Hg10 mi
3:51 AM67 °FOvercast.7 mph87%30.01 "Hg10 mi
2:51 AM67 °FOvercast.6 mph87%30.03 "Hg10 mi
1:51 AM67 °FOvercast.7 mph87%30.05 "Hg10 mi
12:51 AM67 °FOvercast.N/A90%30.06 "Hg10 mi
11:51 PM
Mon, Mar 30
68 °FClear.9 mph84%30.07 "Hg10 mi
10:51 PM70 °FClear.5 mph79%30.06 "Hg10 mi
Weather by CustomWeather, © 2015

See weather overviewHow to use our weather pages